sat.trackr.live / text

‹ back to catalog

STARLINK-30146

NORAD 57442 · 2023-105N

PAYLOAD ACTIVE UNKNOWN

§ Identity

Operator
Country
US
Launch date
2023-07-24
Launch site
AFETR
Launch vehicle
Mass (kg)
RCS (m²)

Purposes: comms

External: N2YO · Heavens-Above · Gunter

§ Orbital elements

Epoch: 2026-05-25T03:33:58.930272Z

Period
94.27 min
Inclination
43.0013°
Eccentricity
0.0001492
Mean motion
15.27570806 rev/d
Perigee alt
482.1 km
Apogee alt
484.1 km
Semi-major
6,861.2 km
B*
-1.3187e-4
RAAN
188.1847°
Arg perigee
269.8356°
Mean anomaly
90.2325°
Rev number
15,733

§ Raw data

STARLINK-301461 57442U 23105N   26145.14859873 -.00003888  00000+0 -13187-3 0  99972 57442  43.0013 188.1847 0001492 269.8356  90.2325 15.27570806157338

JSON: /api/v1/satellites/57442 · /tle

For live sub-satellite position, see the globe view (requires WebGL).

§ Visibility from observer

Set your observer location to see the next 7 days of passes ≥ 10°. The values pass through the URL so the page stays shareable.

No JS? Fill the form by hand. The geolocation button needs JavaScript.